CW2857 Weather Reports


time (UTC)temp
C
wind
direction
speed
KPH
gust
KPH
rain 1hr
cm
rain 24hr
cm
rain mn
cm
humidity
%
barometer
mb
20240418164100 11 350 3.2 16.1 0.00 0.00 0.00 24 1015.8
20240418163600 11 35 3.2 8.0 0.00 0.00 0.00 25 1015.8
20240418163058 10 41 4.8 9.7 0.00 0.00 0.00 25 1015.9
20240418162557 10 39 4.8 9.7 0.00 0.00 0.00 26 1015.9
20240418162058 9 125 3.2 9.7 0.00 0.00 0.00 26 1015.9
20240418161606 9 82 1.6 9.7 0.00 0.00 0.00 26 1016.0
20240418161055 9 102 3.2 11.3 0.00 0.00 0.00 26 1015.9
20240418160553 8 62 1.6 6.4 0.00 0.00 0.00 27 1016.0
20240418160054 8 105 0.0 9.7 0.00 0.00 0.00 27 1016.1
20240418155553 8 69 3.2 9.7 0.00 0.00 0.00 27 1016.2
20240418155052 8 81 1.6 8.0 0.00 0.00 0.00 28 1016.1
20240418154557 7 42 4.8 8.0 0.00 0.00 0.00 27 1016.2
20240418154050 7 139 3.2 6.4 0.00 0.00 0.00 28 1016.1
20240418153550 7 109 1.6 6.4 0.00 0.00 0.00 30 1016.1
20240418153050 7 136 1.6 6.4 0.00 0.00 0.00 30 1016.1
20240418152550 7 151 1.6 6.4 0.00 0.00 0.00 30 1016.1
20240418152050 7 124 0.0 6.4 0.00 0.00 0.00 30 1016.1
20240418151549 7 332 0.0 3.2 0.00 0.00 0.00 30 1016.1
20240418151048 6 332 0.0 3.2 0.00 0.00 0.00 31 1016.1
20240418150548 6 329 0.0 3.2 0.00 0.00 0.00 32 1016.1
20240418150049 6 325 0.0 3.2 0.00 0.00 0.00 32 1016.2
20240418145548 6 327 0.0 3.2 0.00 0.00 0.00 33 1016.1
20240418145047 5 321 0.0 3.2 0.00 0.00 0.00 34 1016.2
20240418144548 5 287 1.6 3.2 0.00 0.00 0.00 36 1016.1
20240418144047 4 287 0.0 4.8 0.00 0.00 0.00 37 1016.2
20240418143546 4 287 0.0 4.8 0.00 0.00 0.00 38 1016.2
20240418143050 4 287 0.0 3.2 0.00 0.00 0.00 38 1016.1
20240418142549 3 273 1.6 3.2 0.00 0.00 0.00 39 1016.2
20240418142045 3 267 0.0 3.2 0.00 0.00 0.00 40 1016.1
20240418141545 3 267 0.0 3.2 0.00 0.00 0.00 41 1016.1
20240418141046 3 267 0.0 4.8 0.00 0.00 0.00 42 1016.0
20240418140543 3 267 0.0 4.8 0.00 0.00 0.00 42 1016.0
20240418140047 3 267 0.0 4.8 0.00 0.00 0.00 42 1016.0
20240418135544 3 276 0.0 6.4 0.00 0.00 0.00 42 1015.8
20240418135046 3 276 1.6 6.4 0.00 0.00 0.00 41 1015.9
20240418134542 3 279 3.2 9.7 0.00 0.00 0.00 41 1015.8
20240418134042 2 271 3.2 9.7 0.00 0.00 0.00 40 1015.8
20240418133542 2 297 4.8 8.0 0.00 0.00 0.00 41 1015.7
20240418133042 2 254 3.2 11.3 0.00 0.00 0.00 41 1015.6
20240418132539 2 261 6.4 11.3 0.00 0.00 0.00 42 1015.5
20240418132038 1 279 4.8 8.0 0.00 0.00 0.00 45 1015.4
20240418131546 1 248 3.2 6.4 0.00 0.00 0.00 47 1015.4
20240418131040 2 237 3.2 4.8 0.00 0.00 0.00 45 1015.4
20240418130539 2 221 1.6 6.4 0.00 0.00 0.00 45 1015.3
20240418130045 2 216 3.2 6.4 0.00 0.00 0.00 43 1015.4
20240418125538 2 234 1.6 4.8 0.00 0.00 0.00 44 1015.4
20240418125037 2 244 1.6 6.4 0.00 0.00 0.00 45 1015.4
20240418124554 2 254 3.2 8.0 0.00 0.00 0.00 45 1015.4
20240418124037 2 257 4.8 9.7 0.00 0.00 0.00 44 1015.3
20240418123537 2 261 3.2 8.0 0.00 0.00 0.00 45 1015.3
20240418123043 2 264 3.2 8.0 0.00 0.00 0.00 47 1015.3
20240418122534 1 252 4.8 8.0 0.00 0.00 0.00 49 1015.4
20240418122034 1 240 3.2 6.4 0.00 0.00 0.00 49 1015.4
20240418121536 1 240 3.2 6.4 0.00 0.00 0.00 48 1015.3
20240418121033 1 214 1.6 4.8 0.00 0.00 0.00 48 1015.3
20240418120532 2 211 1.6 4.8 0.00 0.00 0.00 46 1015.3
20240418120109 2 211 1.6 3.2 0.00 0.00 0.00 45 1015.3
20240418115536 2 211 1.6 4.8 0.00 0.00 0.00 44 1015.3
20240418115028 3 211 1.6 4.8 0.00 0.00 0.00 42 1015.3
20240418114534 3 211 3.2 4.8 0.00 0.00 0.00 42 1015.3
20240418114028 3 235 3.2 4.8 0.00 0.00 0.00 41 1015.3
20240418113528 3 219 1.6 3.2 0.00 0.00 0.00 41 1015.3
20240418113036 3 219 0.0 4.8 0.00 0.00 0.00 38 1015.3
20240418112526 3 219 1.6 8.0 0.00 0.00 0.00 40 1015.3
20240418112127 3 228 1.6 8.0 0.00 0.00 0.00 39 1015.4
20240418111542 3 164 1.6 4.8 0.00 0.00 0.00 39 1015.3
20240418111025 3 170 1.6 8.0 0.00 0.00 0.00 40 1015.3
20240418110525 4 140 1.6 8.0 0.00 0.00 0.00 40 1015.3
20240418110025 3 195 1.6 6.4 0.00 0.00 0.00 42 1015.2
20240418105524 3 188 1.6 6.4 0.00 0.00 0.00 42 1015.3
20240418105023 3 196 1.6 6.4 0.00 0.00 0.00 45 1015.2
20240418104523 3 182 4.8 6.4 0.00 0.00 0.00 44 1015.1
20240418104022 3 214 3.2 4.8 0.00 0.00 0.00 44 1015.1
20240418103520 3 240 1.6 3.2 0.00 0.00 0.00 45 1015.1
20240418103020 3 240 1.6 4.8 0.00 0.00 0.00 44 1015.1
20240418102523 3 240 1.6 4.8 0.00 0.00 0.00 44 1015.1
20240418102019 3 250 1.6 4.8 0.00 0.00 0.00 44 1015.0
20240418101534 3 289 1.6 3.2 0.00 0.00 0.00 44 1014.9
20240418101016 3 289 1.6 3.2 0.00 0.00 0.00 44 1015.0
20240418100516 4 289 0.0 3.2 0.00 0.00 0.00 43 1014.9
20240418100014 4 289 0.0 3.2 0.00 0.00 0.00 42 1014.9
20240418095513 5 289 0.0 3.2 0.00 0.00 0.00 40 1014.9
20240418095015 5 289 0.0 3.2 0.00 0.00 0.00 39 1015.0
20240418094511 5 289 1.6 8.0 0.00 0.00 0.00 38 1015.0
20240418094010 5 292 3.2 11.3 0.00 0.00 0.00 37 1014.9
20240418093509 5 271 6.4 11.3 0.00 0.00 0.00 38 1014.9
20240418093010 5 257 3.2 11.3 0.00 0.00 0.00 39 1014.8
20240418092508 5 254 4.8 11.3 0.00 0.00 0.00 39 1014.8
20240418092109 5 234 1.6 6.4 0.00 0.00 0.00 39 1014.7
20240418091508 5 184 3.2 6.4 0.00 0.00 0.00 38 1014.7
20240418091007 5 205 1.6 4.8 0.00 0.00 0.00 38 1014.7
20240418090507 5 205 1.6 4.8 0.00 0.00 0.00 40 1014.6
20240418090005 5 204 3.2 6.4 0.00 0.00 0.00 40 1014.5
20240418085510 5 206 3.2 4.8 0.00 0.00 0.00 40 1014.6
20240418085005 5 216 0.0 4.8 0.00 0.00 0.00 39 1014.6
20240418084505 5 216 1.6 4.8 0.00 0.00 0.00 42 1014.8
20240418084004 5 216 1.6 3.2 0.00 0.00 0.00 41 1014.7
20240418083502 6 216 0.0 4.8 0.00 0.00 0.00 40 1014.9
20240418083002 6 216 1.6 4.8 0.00 0.00 0.00 40 1014.9
20240418082501 6 253 0.0 3.2 0.00 0.00 0.00 40 1015.0
20240418082102 6 253 1.6 4.8 0.00 0.00 0.00 40 1015.0
20240418081605 6 253 0.0 4.8 0.00 0.00 0.00 38 1014.9
20240418081058 6 253 1.6 3.2 0.00 0.00 0.00 38 1014.9
20240418080559 6 253 1.6 3.2 0.00 0.00 0.00 38 1014.9
20240418080056 6 265 1.6 4.8 0.00 0.00 0.00 38 1014.8
20240418075555 7 265 3.2 4.8 0.00 0.00 0.00 37 1014.9
20240418075054 7 265 0.0 4.8 0.00 0.00 0.00 35 1014.9
20240418074553 7 277 1.6 8.0 0.00 0.00 0.00 34 1014.7
20240418074052 7 287 3.2 8.0 0.00 0.00 0.00 34 1014.7
20240418073552 7 261 4.8 9.7 0.00 0.00 0.00 35 1014.6
20240418073139 7 265 1.6 9.7 0.00 0.00 0.00 34 1014.5
20240418072551 8 247 3.2 16.1 0.00 0.00 0.00 34 1014.5
20240418072051 7 231 6.4 16.1 0.00 0.00 0.00 35 1014.5
20240418071550 8 236 4.8 8.0 0.00 0.00 0.00 35 1014.5
20240418071052 8 196 4.8 9.7 0.00 0.00 0.00 33 1014.4
20240418070548 8 220 4.8 9.7 0.00 0.00 0.00 34 1014.4
20240418070116 8 196 4.8 9.7 0.00 0.00 0.00 34 1014.4
20240418065546 8 197 4.8 9.7 0.00 0.00 0.00 33 1014.3
20240418065047 8 205 4.8 12.9 0.00 0.00 0.00 32 1014.2
20240418064545 8 163 8.0 16.1 0.00 0.00 0.00 32 1014.1
20240418064045 8 136 6.4 16.1 0.00 0.00 0.00 32 1014.1
20240418063546 8 169 9.7 16.1 0.00 0.00 0.00 34 1014.1
20240418063044 8 171 6.4 12.9 0.00 0.00 0.00 34 1014.2
20240418062547 8 182 4.8 11.3 0.00 0.00 0.00 34 1014.2
20240418062043 8 165 3.2 6.4 0.00 0.00 0.00 34 1014.2
20240418061553 8 162 1.6 4.8 0.00 0.00 0.00 34 1014.2
20240418061042 8 123 1.6 6.4 0.00 0.00 0.00 34 1014.2
20240418060542 8 123 1.6 12.9 0.00 0.00 0.00 34 1014.1
20240418060042 8 79 3.2 12.9 0.00 0.00 0.00 34 1014.1
20240418055543 9 124 4.8 17.7 0.00 0.00 0.00 33 1014.0
20240418055041 9 130 9.7 17.7 0.00 0.00 0.00 33 1014.0
20240418054541 9 178 6.4 11.3 0.00 0.00 0.00 34 1014.0
20240418054039 9 194 4.8 8.0 0.00 0.00 0.00 33 1013.9
20240418053540 10 128 3.2 6.4 0.00 0.00 0.00 32 1013.7
20240418053039 10 78 3.2 8.0 0.00 0.00 0.00 32 1013.7
20240418052540 10 159 4.8 9.7 0.00 0.00 0.00 31 1013.6
20240418052039 10 119 1.6 9.7 0.00 0.00 0.00 31 1013.6
20240418051539 10 79 3.2 14.5 0.00 0.00 0.00 31 1013.6
20240418051038 10 65 4.8 17.7 0.00 0.00 0.00 30 1013.5
20240418050539 11 15 9.7 17.7 0.00 0.00 0.00 30 1013.4
20240418050040 11 57 3.2 22.5 0.00 0.00 0.00 30 1013.3
20240418045539 11 57 4.8 16.1 0.00 0.00 0.00 29 1013.2
20240418045038 11 43 1.6 8.0 0.00 0.00 0.00 27 1013.2
20240418044541 11 71 3.2 8.0 0.00 0.00 0.00 28 1013.0
20240418044037 11 44 1.6 9.7 0.00 0.00 0.00 29 1013.0
20240418043539 11 48 3.2 9.7 0.00 0.00 0.00 29 1012.9
20240418043035 12 56 3.2 8.0 0.00 0.00 0.00 30 1012.8
20240418042535 12 78 3.2 9.7 0.00 0.00 0.00 30 1012.8
20240418042037 12 63 1.6 8.0 0.00 0.00 0.00 29 1012.8
20240418041543 12 16 3.2 11.3 0.00 0.00 0.00 28 1012.6
20240418041034 12 58 3.2 11.3 0.00 0.00 0.00 28 1012.6
20240418040534 13 71 3.2 8.0 0.00 0.00 0.00 28 1012.6
20240418040036 13 19 3.2 9.7 0.00 0.00 0.00 28 1012.4
20240418035534 13 59 3.2 11.3 0.00 0.00 0.00 29 1012.3
20240418035033 13 65 3.2 14.5 0.00 0.00 0.00 29 1012.2
20240418034533 13 30 3.2 12.9 0.00 0.00 0.00 29 1012.2
20240418034032 13 47 6.4 14.5 0.00 0.00 0.00 30 1012.1
20240418033531 13 70 6.4 14.5 0.00 0.00 0.00 31 1012.0
20240418033035 14 350 6.4 14.5 0.00 0.00 0.00 31 1012.0
20240418032532 14 49 3.2 14.5 0.00 0.00 0.00 32 1012.0
20240418032030 14 49 4.8 14.5 0.00 0.00 0.00 34 1011.9
20240418031535 14 38 3.2 12.9 0.00 0.00 0.00 36 1011.9
20240418031029 14 342 1.6 8.0 0.00 0.00 0.00 36 1011.7
20240418030530 15 360 3.2 9.7 0.00 0.00 0.00 35 1011.7
20240418030040 15 355 4.8 9.7 0.00 0.00 0.00 36 1011.6
20240418025533 15 29 1.6 8.0 0.00 0.00 0.00 36 1011.6
20240418025029 15 5 3.2 9.7 0.00 0.00 0.00 35 1011.5
20240418024531 15 321 3.2 12.9 0.00 0.00 0.00 35 1011.4
20240418024029 15 328 4.8 12.9 0.00 0.00 0.00 35 1011.3
20240418023528 15 317 3.2 16.1 0.00 0.00 0.00 35 1011.3
20240418023038 15 334 6.4 16.1 0.00 0.00 0.00 34 1011.2
20240418022527 15 295 6.4 17.7 0.00 0.00 0.00 34 1011.1
20240418022031 15 355 9.7 17.7 0.00 0.00 0.00 34 1011.1
20240418021528 15 325 9.7 17.7 0.00 0.00 0.00 34 1011.0
20240418021028 16 328 6.4 22.5 0.00 0.00 0.00 34 1011.0
20240418020527 16 334 8.0 24.1 0.00 0.00 0.00 34 1010.9
20240418020029 16 290 9.7 19.3 0.00 0.00 0.00 33 1011.0
20240418015528 16 306 8.0 19.3 0.00 0.00 0.00 32 1011.0
20240418015027 17 320 8.0 20.9 0.00 0.00 0.00 31 1010.9
20240418014527 17 304 9.7 20.9 0.00 0.00 0.00 31 1010.9
20240418014025 17 34 6.4 19.3 0.00 0.00 0.00 31 1011.0
20240418013528 17 332 9.7 17.7 0.00 0.00 0.00 30 1010.9
20240418013026 17 341 9.7 17.7 0.00 0.00 0.00 30 1011.0
20240418012525 17 345 6.4 19.3 0.00 0.00 0.00 30 1011.0
20240418012026 17 290 11.3 19.3 0.00 0.00 0.00 29 1011.0
20240418011525 17 322 8.0 19.3 0.00 0.00 0.00 30 1010.9
20240418011025 18 9 9.7 20.9 0.00 0.00 0.00 29 1011.0
20240418010525 17 334 11.3 20.9 0.00 0.00 0.00 29 1011.0
20240418010024 18 331 11.3 19.3 0.00 0.00 0.00 28 1010.9
20240418005524 18 294 9.7 19.3 0.00 0.00 0.00 28 1010.9
20240418005024 17 290 8.0 22.5 0.00 0.00 0.00 28 1010.9
20240418004525 17 319 14.5 22.5 0.00 0.00 0.00 29 1010.9
20240418004023 17 294 9.7 20.9 0.00 0.00 0.00 29 1010.9
20240418003523 18 298 11.3 19.3 0.00 0.00 0.00 27 1010.9
20240418003036 18 321 9.7 19.3 0.00 0.00 0.00 29 1010.8
20240418002523 18 279 9.7 22.5 0.00 0.00 0.00 28 1010.8
20240418002022 18 297 11.3 22.5 0.00 0.00 0.00 28 1010.7
20240418001522 18 275 8.0 20.9 0.00 0.00 0.00 28 1010.7
20240418001022 18 305 12.9 24.1 0.00 0.00 0.00 27 1010.7
20240418000523 18 321 8.0 24.1 0.00 0.00 0.00 27 1010.7
20240418000025 18 345 9.7 19.3 0.00 0.00 0.00 27 1010.6
20240417235521 18 277 11.3 19.3 0.00 0.00 0.00 27 1010.6
20240417235022 19 284 9.7 24.1 0.00 0.00 0.00 28 1010.7
20240417234522 20 323 12.9 24.1 0.00 0.00 0.00 27 1010.7
20240417234021 20 9 8.0 22.5 0.00 0.00 0.00 27 1010.7
20240417233523 19 34 9.7 22.5 0.00 0.00 0.00 27 1010.7
20240417233020 19 327 9.7 24.1 0.00 0.00 0.00 28 1010.7
20240417232520 19 360 9.7 24.1 0.00 0.00 0.00 27 1010.7
20240417232019 19 254 8.0 24.1 0.00 0.00 0.00 28 1010.8
20240417231521 19 323 12.9 25.7 0.00 0.00 0.00 27 1010.8
20240417231020 19 324 16.1 25.7 0.00 0.00 0.00 28 1010.7
20240417230519 19 279 11.3 20.9 0.00 0.00 0.00 27 1010.8
20240417230018 19 284 6.4 20.9 0.00 0.00 0.00 28 1010.8
20240417225522 19 355 11.3 24.1 0.00 0.00 0.00 28 1010.9
20240417225017 19 329 16.1 25.7 0.00 0.00 0.00 28 1011.0
20240417224523 20 5 12.9 25.7 0.00 0.00 0.00 28 1010.9
20240417224016 19 355 11.3 24.1 0.00 0.00 0.00 28 1011.0
20240417223516 19 333 8.0 22.5 0.00 0.00 0.00 27 1011.0
20240417223023 20 342 6.4 22.5 0.00 0.00 0.00 28 1011.1
20240417222514 21 323 8.0 19.3 0.00 0.00 0.00 26 1011.1
20240417222013 20 355 8.0 20.9 0.00 0.00 0.00 26 1011.2
20240417221512 19 331 11.3 20.9 0.00 0.00 0.00 28 1011.3
20240417221011 18 325 11.3 20.9 0.00 0.00 0.00 28 1011.3
20240417220512 18 340 9.7 19.3 0.00 0.00 0.00 28 1011.4
20240417220011 18 279 9.7 27.4 0.00 0.00 0.00 29 1011.4
20240417215611 18 307 12.9 27.4 0.00 0.00 0.00 28 1011.4
20240417215011 20 298 11.3 19.3 0.00 0.00 0.00 27 1011.5
20240417214509 20 336 8.0 19.3 0.00 0.00 0.00 27 1011.6
20240417214008 20 284 11.3 19.3 0.00 0.00 0.00 28 1011.6
20240417213507 19 295 11.3 20.9 0.00 0.00 0.00 27 1011.7
20240417213007 20 293 1.6 20.9 0.00 0.00 0.00 27 1011.7
20240417212507 19 286 4.8 19.3 0.00 0.00 0.00 28 1011.7
20240417212011 19 343 9.7 19.3 0.00 0.00 0.00 27 1011.7
20240417211506 18 263 6.4 19.3 0.00 0.00 0.00 29 1011.7
20240417211004 18 244 6.4 19.3 0.00 0.00 0.00 30 1011.8
20240417210504 18 355 8.0 19.3 0.00 0.00 0.00 28 1011.8
20240417210003 19 36 3.2 16.1 0.00 0.00 0.00 28 1011.9
20240417205503 18 338 8.0 17.7 0.00 0.00 0.00 28 1011.9
20240417205002 18 318 11.3 22.5 0.00 0.00 0.00 27 1012.0
20240417204501 18 11 12.9 22.5 0.00 0.00 0.00 29 1012.1
20240417204101 18 5 8.0 22.5 0.00 0.00 0.00 28 1012.1
20240417203600 18 325 8.0 20.9 0.00 0.00 0.00 29 1012.2
20240417203105 18 312 11.3 22.5 0.00 0.00 0.00 29 1012.1
20240417202559 18 5 6.4 17.7 0.00 0.00 0.00 29 1012.2
20240417202059 18 343 6.4 20.9 0.00 0.00 0.00 29 1012.2
20240417201559 18 334 9.7 20.9 0.00 0.00 0.00 29 1012.2
20240417201058 18 332 8.0 20.9 0.00 0.00 0.00 29 1012.2
20240417200558 18 13 9.7 16.1 0.00 0.00 0.00 29 1012.3
20240417200100 18 302 4.8 20.9 0.00 0.00 0.00 28 1012.3
20240417195557 18 350 8.0 20.9 0.00 0.00 0.00 28 1012.3
20240417195055 18 333 6.4 17.7 0.00 0.00 0.00 29 1012.4
20240417194604 17 20 6.4 20.9 0.00 0.00 0.00 32 1012.4
20240417194053 17 351 8.0 20.9 0.00 0.00 0.00 32 1012.5
20240417193552 16 5 6.4 17.7 0.00 0.00 0.00 32 1012.6
20240417193052 16 297 8.0 20.9 0.00 0.00 0.00 34 1012.7
20240417192553 17 239 8.0 20.9 0.00 0.00 0.00 32 1012.8
20240417192053 17 331 8.0 19.3 0.00 0.00 0.00 31 1012.8
20240417191604 16 321 8.0 17.7 0.00 0.00 0.00 33 1012.9
20240417191051 16 317 9.7 20.9 0.00 0.00 0.00 33 1013.0
20240417190550 16 344 9.7 20.9 0.00 0.00 0.00 34 1013.0
20240417190056 16 284 9.7 20.9 0.00 0.00 0.00 34 1013.1
20240417185549 15 330 12.9 22.5 0.00 0.00 0.00 35 1013.2
20240417185050 16 299 11.3 22.5 0.00 0.00 0.00 35 1013.3
20240417184607 16 333 9.7 20.9 0.00 0.00 0.00 34 1013.3
20240417184049 16 296 8.0 17.7 0.00 0.00 0.00 34 1013.4
20240417183550 16 325 8.0 19.3 0.00 0.00 0.00 35 1013.5
20240417183101 16 30 9.7 19.3 0.00 0.00 0.00 33 1013.5
20240417182548 15 337 6.4 24.1 0.00 0.00 0.00 35 1013.5
20240417182048 15 288 12.9 24.1 0.00 0.00 0.00 36 1013.6
20240417181558 14 325 9.7 20.9 0.00 0.00 0.00 37 1013.5
20240417181047 14 268 8.0 20.9 0.00 0.00 0.00 37 1013.5
20240417180547 14 250 4.8 20.9 0.00 0.00 0.00 36 1013.4
20240417180048 15 273 12.9 20.9 0.00 0.00 0.00 35 1013.5
20240417175546 15 317 9.7 20.9 0.00 0.00 0.00 35 1013.5
20240417175046 14 19 9.7 19.3 0.00 0.00 0.00 37 1013.6
20240417174549 15 360 8.0 19.3 0.00 0.00 0.00 35 1013.6
20240417174044 15 327 4.8 16.1 0.00 0.00 0.00 36 1013.6
20240417173543 14 13 6.4 24.1 0.00 0.00 0.00 40 1013.6
20240417173043 14 256 8.0 24.1 0.00 0.00 0.00 39 1013.7
20240417172542 14 325 6.4 14.5 0.00 0.00 0.00 38 1013.8
20240417172041 13 329 8.0 16.1 0.00 0.00 0.00 41 1013.8
20240417171549 13 310 8.0 20.9 0.00 0.00 0.00 40 1013.7
20240417171039 13 5 12.9 20.9 0.00 0.00 0.00 40 1013.7
20240417170540 13 244 4.8 16.1 0.00 0.00 0.00 40 1013.6
20240417170038 13 5 9.7 16.1 0.00 0.00 0.00 41 1013.6
20240417165537 12 281 8.0 17.7 0.00 0.00 0.00 42 1013.5
20240417165039 12 334 8.0 17.7 0.00 0.00 0.00 44 1013.5
20240417164537 12 293 6.4 19.3 0.00 0.00 0.00 43 1013.5